Location: Bauen
(46.9356°N, 8.5784°E)
Time: 04:30:09
(UTC+00:00)

Daily predictions for brighter satellites

Satellite Brightness Start Highest point End
(mag) Time Altitude Azimuth Time Altitude Azimuth Time Altitude Azimuth
CZ-4C R/B 4.4 02:16:59 21° NE 02:16:59 21° NE 02:19:01 10° NE
Cosmos 1943 Rocket 4.5 02:31:37 17° NNE 02:33:11 19° NE 02:36:59 10° E
USA 215 4.1 02:31:16 10° NE 02:35:33 43° NE 02:35:33 43° NE
SL-16 R/B 3.8 02:46:27 30° E 02:46:27 30° E 02:50:31 10° NE
NOSS 3-1 (A) 4.1 02:56:40 67° NNE 02:57:19 70° NE 03:05:49 10° SE
Cosmos 2369 Rocket 4.3 02:53:23 11° N 02:57:27 23° NE 03:01:52 10° E
Cosmos 2333 Rocket 4.1 03:19:49 20° N 03:19:49 20° N 03:21:56 10° N
IDEFIX/ARIANE 42P 4.1 03:19:31 10° N 03:21:52 27° N 03:21:52 27° N
Cosmos 2251 Rocket 4.1 03:28:27 55° E 03:28:27 55° E 03:33:20 10° NNE
PAYLOAD A 4.5 03:30:34 10° NNE 03:34:30 55° NE 03:34:30 55° NE
BREEZE M DEB (TANK) 4.3 03:13:49 10° WNW 03:37:12 73° SSW 03:42:22 10° SE
Cosmos 1535 Rocket 4.3 03:34:52 10° N 03:41:09 83° W 03:47:19 10° S
ATLAS CENTAUR R/B 2.5 03:46:18 45° NNE 03:46:18 45° NNE 03:49:25 10° NE
Cosmos 2237 Rocket 3.2 03:48:41 33° NNW 03:48:41 33° NNW 03:52:21 10° NNE
Lacrosse 5 2.1 03:47:37 61° NNE 03:47:49 62° NNE 03:52:50 10° ESE
NOSS 3-1 (C) 4.2 03:53:58 49° SW 03:53:58 49° SW 04:01:56 10° S
MSX 3.9 03:49:19 10° N 03:54:27 59° NW 03:54:27 59° NW
H-2A R/B 3.4 03:50:53 10° NNE 03:55:09 49° E 03:57:25 26° SSE
GEOS 3 Rocket 4.2 03:50:09 10° NE 03:55:23 56° SE 03:57:21 36° S
BREEZE-M DEB (TANK) 3.8 03:54:29 45° WNW 03:56:32 63° N 04:00:48 10° ENE
ADEOS 3.6 03:51:41 10° N 03:56:18 64° NNW 03:56:18 64° NNW
Cosmos 2219 Rocket 4.1 03:58:45 16° NNW 03:58:45 16° NNW 04:01:05 10° N
BREEZE-M DEB (TANK) 3.7 03:58:30 80° SSE 03:58:31 80° SSE 04:07:00 10° ENE
CZ-2C R/B 2.4 03:53:25 10° NNE 03:58:39 88° WNW 03:59:16 70° SSW
Meteor 1-31 Rocket 3.4 03:55:59 10° NNE 03:59:23 52° ENE 03:59:23 52° ENE
Cosmos 1356 Rocket 4.1 04:01:13 46° NNE 04:01:13 46° NNE 04:04:12 10° NNE
CZ-4C R/B 3.1 04:02:10 34° NNW 04:02:10 34° NNW 04:07:50 10° NNE
Meteor 2-10 Rocket 3.4 04:03:59 71° W 04:04:03 71° WNW 04:09:15 10° N
Cosmos 1842 Rocket 4.1 04:02:57 15° S 04:06:34 58° E 04:11:00 10° NNE
Cosmos 1934 Rocket 4.2 04:09:55 10° NNW 04:15:53 47° W 04:21:54 10° SSW
NOSS 2-1 (E) 3.9 04:17:28 41° N 04:17:28 41° N 04:20:20 10° NNE
Cosmos 1943 Rocket 2.1 04:13:11 15° NNW 04:17:46 87° ENE 04:23:16 10° SSE
ALOS 3.4 04:14:55 10° NNE 04:19:24 44° E 04:23:51 10° S
USA 215 4.0 04:14:16 10° NE 04:20:15 40° N 04:22:54 28° NW
CZ-4B R/B 3.9 04:18:06 10° NNE 04:22:25 83° WNW 04:24:21 33° SSW
Cosmos 921 Rocket 4.2 04:18:14 10° N 04:22:30 42° ENE 04:26:40 10° SE
COSMO-SKYMED 1 2.9 04:19:17 10° SSE 04:23:34 65° ENE 04:27:54 10° N
SL-16 R/B 2.5 04:28:21 41° W 04:29:30 47° NW 04:34:59 10° NNE
STARLINK-1141 4.5 04:30:54 27° N 04:30:54 27° N 04:33:33 10° ENE
STARLINK-1140 4.5 04:32:54 27° N 04:32:54 27° N 04:35:38 10° ENE
Cosmos 2221 2.4 04:29:22 10° S 04:33:38 84° E 04:37:57 10° N
STARLINK-1156 4.4 04:34:56 27° N 04:34:56 27° N 04:37:47 10° ENE
STARLINK-1148 4.4 04:36:58 27° N 04:37:04 27° N 04:39:54 10° ENE
Cosmos 1605 Rocket 4.1 04:32:09 10° NNW 04:38:05 47° W 04:43:56 10° SSW
FENGYUN 3A 4.0 04:33:42 10° NNE 04:39:08 67° ESE 04:44:32 10° S
STARLINK-1158 4.4 04:39:04 26° N 04:39:16 27° N 04:42:06 10° ENE
Cosmos 2369 Rocket 2.1 04:36:24 10° NNW 04:42:08 78° WSW 04:47:50 10° SSE
Aureole 2 Rocket 2.3 04:42:36 29° N 04:43:56 70° ENE 04:47:04 10° SSE
Cosmos 614 Rocket 4.1 04:39:18 10° SSW 04:44:25 78° ESE 04:49:39 10° NNE
Cosmos 1603 3.8 04:39:56 10° SSW 04:45:38 78° ESE 04:51:21 10° NNE
SKYMED 3 4.4 04:43:20 10° S 04:47:39 72° WSW 04:52:01 10° NNW
Meteor PRIRODA 3.6 04:47:34 10° N 04:51:15 61° WNW 04:54:52 10° SSW
Cosmos 1153 Rocket 4.5 04:45:38 10° NNW 04:51:38 57° W 04:57:35 10° S
Cosmos 1943 3.5 04:46:12 10° SSW 04:51:45 68° ESE 04:57:22 10° NNE
Cosmos 2263 4.1 04:48:25 10° NNW 04:54:09 85° WSW 04:59:48 10° SSE
STARLINK-1179 4.3 04:55:12 20° N 04:55:33 20° N 04:57:37 10° NE
STARLINK-1176 4.3 04:55:41 20° N 04:56:03 21° N 04:58:08 10° NE
Meteor 2-3 Rocket 4.0 04:52:19 10° NNW 04:57:44 44° W 05:03:11 10° SSW
CZ-4B R/B 4.1 04:55:39 10° NNE 05:00:51 50° E 05:05:58 10° S
Cosmos 1656 Rocket 3.9 04:56:59 10° NNW 05:02:42 75° ENE 05:08:23 10° SSE
IDEFIX/ARIANE 42P 4.5 05:01:20 10° NNW 05:02:41 12° NW 05:02:41 12° NW
Cosmos 1727 Rocket 4.1 04:59:39 10° SSW 05:05:38 51° WNW 05:11:40 10° N
Cosmos 1238 4.0 05:03:03 10° SSW 05:06:03 63° W 05:09:07 10° N
Cosmos 1484 Rocket 3.2 05:02:32 10° N 05:06:14 39° WNW 05:09:57 10° SW
Cosmos 1633 2.4 05:02:46 10° NNW 05:06:26 77° W 05:10:03 10° S
NOAA 6 4.4 05:04:37 10° NNE 05:09:49 68° ESE 05:14:57 10° S
Cosmos 1805 Rocket 3.4 05:06:47 10° NNW 05:11:08 77° W 05:15:27 10° S
SKYMED 2 4.0 05:07:39 10° SSW 05:11:45 40° W 05:15:52 10° NNW
Cosmos 2173 Rocket 4.0 05:07:43 10° NNW 05:13:58 66° W 05:20:06 10° S
STARLINK-1153 4.4 05:14:21 16° NW 05:15:53 25° N 05:18:23 10° ENE
Sich 1 3.0 05:11:37 10° N 05:15:56 87° E 05:20:13 10° S
STARLINK-1180 4.4 05:14:33 16° NW 05:16:07 25° N 05:18:38 10° ENE
STARLINK-1174 4.4 05:15:00 16° NW 05:16:34 25° N 05:19:04 10° ENE
STARLINK-1139 4.4 05:15:13 16° NW 05:16:48 25° N 05:19:18 10° ENE
STARLINK-1133 4.4 05:15:25 16° NW 05:17:00 25° N 05:19:30 10° ENE
STARLINK-1151 4.4 05:15:40 16° NW 05:17:15 25° N 05:19:46 10° ENE
STARLINK-1160 4.4 05:16:18 16° NW 05:17:56 25° N 05:20:26 10° ENE
STARLINK-1161 4.4 05:16:32 16° NW 05:18:09 25° N 05:20:40 10° ENE
STARLINK-1145 4.4 05:16:44 16° NW 05:18:23 25° N 05:20:53 10° ENE
Cosmos 1500 Rocket 4.3 05:14:41 10° NNW 05:18:35 30° W 05:22:26 10° SSW
STARLINK-1172 4.4 05:16:57 16° NW 05:18:36 25° N 05:21:06 10° ENE
CZ-4B R/B 3.8 05:15:54 10° NNW 05:18:51 23° WNW 05:20:20 18° W
STARLINK-1162 4.4 05:17:03 16° NW 05:18:57 27° N 05:21:44 10° ENE
STARLINK-1182 4.4 05:17:23 16° NW 05:19:03 25° N 05:21:34 10° ENE
STARLINK-1164 4.4 05:17:35 15° NW 05:19:16 25° N 05:21:46 10° ENE
STARLINK-1168 4.4 05:17:49 15° NW 05:19:30 25° N 05:22:01 10° ENE
STARLINK-1183 4.4 05:18:27 15° NW 05:20:10 25° N 05:22:41 10° ENE
STARLINK-1181 4.4 05:18:40 15° NW 05:20:23 25° N 05:22:54 10° ENE
STARLINK-1157 4.4 05:18:51 15° NW 05:20:51 27° N 05:23:38 10° ENE
STARLINK-1196 4.4 05:19:20 15° NW 05:21:06 25° N 05:23:37 10° ENE
PSLV R/B 4.1 05:17:42 10° N 05:21:12 39° WNW 05:24:43 10° SW
STARLINK-1186 4.4 05:19:46 15° NW 05:21:33 25° N 05:24:03 10° ENE
STARLINK-1185 4.4 05:19:58 15° NW 05:21:45 25° N 05:24:17 10° ENE
STARLINK-1144 4.5 05:18:05 10° SW 05:21:57 47° SE 05:25:50 10° ENE
STARLINK-1175 4.4 05:20:12 15° NW 05:22:00 25° N 05:24:31 10° ENE
STARLINK-1147 4.4 05:20:24 15° NW 05:22:13 25° N 05:24:44 10° ENE
STARLINK-1146 4.4 05:20:36 15° NW 05:22:26 25° N 05:24:58 10° ENE
STARLINK-1152 4.4 05:20:50 15° NW 05:22:40 25° N 05:25:12 10° ENE
STARLINK-1195 4.4 05:21:03 14° NW 05:22:54 25° N 05:25:25 10° ENE
STARLINK-1159 4.4 05:20:51 15° NW 05:22:56 27° N 05:25:44 10° ENE
Meteor 2-2 Rocket 4.4 05:17:06 10° SSW 05:23:02 59° WNW 05:29:01 10° N
STARLINK-1137 4.4 05:21:16 14° NW 05:23:07 25° N 05:25:39 10° ENE
Cosmos 1238 Rocket 3.7 05:17:02 10° NNW 05:23:18 75° W 05:28:36 10° S
STARLINK-1142 4.4 05:21:30 14° NW 05:23:22 25° N 05:25:53 10° ENE
STARLINK-1127 4.4 05:21:42 14° NW 05:23:34 25° N 05:26:05 10° ENE
STARLINK-1184 4.4 05:21:56 14° NW 05:23:48 25° N 05:26:19 10° ENE
ATLAS 2AS CENTAUR R/B 4.0 05:16:39 10° NW 05:23:53 40° NNE 05:30:35 10° ESE
Okean O Rocket 1.6 05:19:35 10° NNE 05:23:59 85° E 05:28:21 10° SSW
STARLINK-1193 4.3 05:22:08 14° NW 05:24:02 25° N 05:26:33 10° ENE
STARLINK-1194 4.3 05:22:21 14° NW 05:24:14 25° N 05:26:46 10° ENE
ATLAS CENTAUR R/B 3.2 05:22:30 14° WNW 05:24:28 18° NNW 05:27:33 10° NNE
STARLINK-1171 4.4 05:22:59 14° NW 05:25:09 27° N 05:27:58 10° ENE
PAYLOAD B 4.2 05:20:23 10° NNE 05:25:59 77° WNW 05:31:31 10° SSW
STARLINK-1103 4.4 05:22:39 10° SW 05:26:32 51° SE 05:30:28 10° ENE
STARLINK-1155 4.4 05:24:44 13° NW 05:27:00 28° N 05:29:49 10° ENE
Cosmos 2100 Rocket 4.2 05:21:50 10° NNW 05:27:46 48° W 05:33:38 10° SSW
STARLINK-1166 4.4 05:26:53 13° NW 05:29:14 28° N 05:32:03 10° ENE
H-2A R/B 3.9 05:27:06 10° NNW 05:30:19 20° WNW 05:33:35 10° WSW
Lacrosse 5 2.7 05:26:51 14° WNW 05:30:33 31° SW 05:34:59 10° S
Cosmos 1340 4.0 05:27:04 10° N 05:30:41 42° ENE 05:34:16 10° SSE
STARLINK-1101 4.2 05:27:14 10° SW 05:31:10 55° SE 05:35:07 10° ENE
STARLINK-1165 4.4 05:28:43 12° NW 05:31:11 28° N 05:34:00 10° ENE
STARLINK-1128 4.2 05:27:21 10° SW 05:31:15 56° SE 05:35:10 10° ENE
STARLINK-1149 4.2 05:29:32 12° NW 05:31:31 24° N 05:33:49 10° ENE
Cosmos 2237 Rocket 4.2 05:31:46 10° NW 05:32:49 10° NNW 05:33:54 10° NNW
STARLINK-1169 4.4 05:30:43 12° NW 05:33:15 29° N 05:36:05 10° ENE
GEOS 3 Rocket 4.3 05:28:26 10° NNE 05:33:16 37° NW 05:38:07 10° WSW
Cosmos 2084 3.8 05:29:04 10° SSW 05:33:33 72° SE 05:38:01 10° NE
Meteor 1-31 Rocket 4.5 05:31:41 10° NNW 05:33:44 14° WNW 05:34:47 13° W
STARLINK-1178 4.4 05:32:37 11° NW 05:35:15 29° N 05:38:06 10° ENE
STARLINK-1113 4.0 05:31:47 10° SW 05:35:42 60° SE 05:39:37 10° ENE
STARLINK-1102 4.1 05:31:50 10° SW 05:35:47 59° SE 05:39:46 10° ENE
STARLINK-1118 2.3 05:33:41 12° WSW 05:36:02 86° NNW 05:38:37 10° ENE
CZ-2C R/B 4.1 05:33:14 10° NNW 05:36:06 15° WNW 05:38:40 11° W
STARLINK-1132 4.2 05:34:49 11° NW 05:37:08 26° NNE 05:39:34 10° ENE
STARLINK-1120 4.3 05:34:28 11° NW 05:37:11 29° N 05:40:02 10° ENE
STARLINK-1070 2.6 05:35:44 10° WSW 05:38:39 87° NNW 05:41:36 10° ENE
Cosmos 2061 Rocket 4.0 05:32:45 10° NNW 05:38:56 60° W 05:45:02 10° S
STARLINK-1131 4.3 05:36:36 10° NW 05:39:25 29° N 05:42:16 10° ENE
STARLINK-1124 2.6 05:36:35 10° WSW 05:39:27 73° NNW 05:42:23 10° ENE
ADEOS Rocket 3.2 05:33:23 10° S 05:39:33 71° WSW 05:46:30 10° NNW
STARLINK-1150 4.1 05:37:17 10° NW 05:39:41 26° NNE 05:42:04 10° ENE
STARLINK-1066 2.6 05:36:50 10° WSW 05:39:45 86° NNW 05:42:41 10° ENE
STARLINK-1081 2.6 05:37:04 10° WSW 05:39:59 85° NNW 05:42:56 10° ENE
STARLINK-1119 3.9 05:36:08 10° SW 05:40:05 64° SE 05:44:03 10° ENE
STARLINK-1069 2.6 05:37:30 10° WSW 05:40:26 85° NNW 05:43:22 10° ENE
STARLINK-1111 4.0 05:36:32 10° SW 05:40:31 64° SE 05:44:30 10° ENE
STARLINK-1085 2.6 05:37:45 10° WSW 05:40:40 84° NNW 05:43:37 10° ENE
STARLINK-1086 2.6 05:37:58 10° WSW 05:40:53 84° NNW 05:43:50 10° ENE
STARLINK-1163 4.1 05:38:36 10° NW 05:41:03 27° NNE 05:43:29 10° ENE
STARLINK-1095 2.6 05:38:12 10° WSW 05:41:06 84° NNW 05:44:03 10° ENE
STARLINK-1077 2.6 05:38:26 10° WSW 05:41:21 83° NNW 05:44:17 10° ENE
STARLINK-1190 4.3 05:38:41 10° NW 05:41:33 30° N 05:44:26 10° ENE
STARLINK-1075 2.6 05:38:38 10° WSW 05:41:34 83° NNW 05:44:30 10° ENE
STARLINK-1093 2.6 05:38:52 10° WSW 05:41:47 83° NNW 05:44:43 10° ENE
STARLINK-1074 2.6 05:39:05 10° WSW 05:42:00 82° NNW 05:44:56 10° ENE
STARLINK-1087 2.6 05:39:20 10° WSW 05:42:15 82° NNW 05:45:11 10° ENE
STARLINK-1088 2.6 05:39:33 10° WSW 05:42:28 82° NNW 05:45:24 10° ENE
STARLINK-1115 2.6 05:39:45 10° WSW 05:42:41 81° NNW 05:45:37 10° ENE
STARLINK-1173 4.1 05:40:20 10° NW 05:42:45 27° NNE 05:45:10 10° ENE
STARLINK-1076 2.6 05:40:00 10° WSW 05:42:55 81° NNW 05:45:51 10° ENE
STARLINK-1177 4.1 05:40:44 10° NW 05:43:08 27° NNE 05:45:32 10° ENE
STARLINK-1092 2.6 05:40:13 10° WSW 05:43:08 81° NNW 05:46:04 10° ENE
STARLINK-1080 2.6 05:40:26 10° WSW 05:43:22 80° NNW 05:46:17 10° ENE
STARLINK-1090 2.6 05:40:40 10° WSW 05:43:35 80° NNW 05:46:32 10° ENE
STARLINK-1089 2.6 05:40:53 10° WSW 05:43:48 80° NNW 05:46:45 10° ENE
STARLINK-1107 2.6 05:41:06 10° WSW 05:44:01 79° NNW 05:46:58 10° ENE
Cosmos 1459 Rocket 4.4 05:38:24 10° NNW 05:44:04 40° W 05:49:48 10° SSW
STARLINK-1109 2.6 05:41:19 10° WSW 05:44:14 79° NNW 05:47:10 10° ENE
STARLINK-1167 4.1 05:41:50 10° NW 05:44:16 27° NNE 05:46:41 10° ENE
STARLINK-1091 2.6 05:41:35 10° WSW 05:44:30 79° NNW 05:47:26 10° ENE
STARLINK-1114 3.8 05:40:37 10° SW 05:44:34 69° SSE 05:48:32 10° ENE
STARLINK-1072 2.6 05:41:48 10° WSW 05:44:43 78° NNW 05:47:39 10° ENE
STARLINK-1096 2.6 05:42:03 10° WSW 05:44:56 78° NNW 05:47:53 10° ENE
STARLINK-1073 3.9 05:41:09 10° SW 05:45:09 68° SSE 05:49:10 10° ENE
STARLINK-1079 2.6 05:42:15 10° WSW 05:45:10 78° NNW 05:48:06 10° ENE
STARLINK-1116 2.6 05:42:29 10° WSW 05:45:24 77° NNW 05:48:20 10° ENE
STARLINK-1094 2.6 05:42:55 10° WSW 05:45:50 77° NNW 05:48:47 10° ENE
STARLINK-1117 2.6 05:43:08 10° WSW 05:46:03 77° NNW 05:49:00 10° ENE
Cosmos 1151 Rocket 3.5 05:41:49 10° S 05:46:05 66° E 05:50:24 10° NNE
STARLINK-1078 2.6 05:43:22 10° WSW 05:46:17 76° NNW 05:49:13 10° ENE
STARLINK-1108 2.6 05:43:35 10° WSW 05:46:30 76° NNW 05:49:26 10° ENE
STARLINK-1071 2.6 05:43:50 10° WSW 05:46:45 76° NNW 05:49:40 10° ENE
STARLINK-1110 2.6 05:44:03 10° WSW 05:46:59 75° NNW 05:49:54 10° ENE
STARLINK-1122 2.6 05:44:29 10° WSW 05:47:24 75° NNW 05:50:20 10° ENE
STARLINK-1126 2.6 05:44:43 10° WSW 05:47:38 74° NNW 05:50:35 10° ENE
Cosmos 1328 Rocket 4.0 05:43:16 10° S 05:47:40 71° E 05:52:08 10° NNE
STARLINK-1082 2.6 05:44:57 10° WSW 05:47:52 74° NNW 05:50:47 10° ENE
STARLINK-1100 2.6 05:45:10 10° WSW 05:48:05 74° NNW 05:51:01 10° ENE
BREEZE M DEB (TANK) 3.8 05:44:49 10° WNW 05:48:19 89° NNE 05:59:33 10° ESE
STARLINK-1083 2.6 05:45:24 10° WSW 05:48:19 73° NNW 05:51:15 10° ENE
TELKOM 3 3.6 05:46:25 11° WNW 05:48:23 38° N 05:50:24 10° E
STARLINK-1125 2.6 05:45:38 10° WSW 05:48:33 73° NNW 05:51:29 10° ENE
STARLINK-1130 (DARKSAT) 3.8 05:44:58 10° SW 05:48:56 73° SE 05:52:56 10° ENE
STARLINK-1136 4.0 05:46:48 10° NW 05:49:18 29° NNE 05:51:48 10° ENE
STARLINK-1121 3.8 05:45:44 10° SW 05:49:45 73° SSE 05:53:47 10° ENE
Shenzhou-11 Module 3.5 05:48:02 10° SW 05:50:18 26° SSE 05:52:35 10° ESE
Cosmos 1725 Rocket 4.1 05:46:28 10° NNW 05:52:37 61° W 05:58:46 10° S
CZ-4C R/B 4.2 05:48:30 10° NW 05:52:41 19° N 05:57:22 10° NE
Cosmos 1400 Rocket 2.9 05:49:21 10° SSW 05:53:18 58° WNW 05:57:20 10° N
STARLINK-1084 3.7 05:49:24 10° SW 05:53:23 78° SSE 05:57:24 10° ENE
STARLINK-1106 3.7 05:50:26 10° SW 05:54:28 78° SSE 05:58:31 10° ENE
Cosmos 1954 Rocket 4.1 05:49:43 10° SW 05:54:59 62° WNW 06:00:18 10° NNE
Cosmos 2123 Rocket 4.1 05:50:05 10° SSW 05:56:20 62° WNW 06:02:36 10° N
ALOS 3.3 05:52:50 10° N 05:56:34 24° WNW 06:00:17 10° WSW
Cosmos 407 Rocket 4.2 05:52:17 10° WSW 05:57:03 33° WNW 06:01:49 10° N
STARLINK-1112 3.6 05:55:12 10° WSW 05:59:15 84° SSE 06:03:18 10° ENE
COSMO-SKYMED 1 4.3 05:57:55 10° WSW 06:00:11 14° W 06:02:27 10° WNW
Cosmos 921 Rocket 4.3 05:57:10 10° NW 06:00:29 21° W 06:03:45 10° SW
Cosmos 1943 Rocket 3.7 05:57:47 10° WNW 06:00:42 15° W 06:03:36 10° SW
Cosmos 1140 Rocket 4.0 05:56:02 10° SW 06:00:57 40° WNW 06:05:54 10° N
USA 215 4.1 05:56:26 10° ENE 06:02:24 39° N 06:08:23 10° NW
